Regional Weather Roundup
Issued by NWS

Home | Current Version | Previous Version | Text Only | Print | Product List | Glossary Off
Versions: 1 2 3 4 5 6 7 8 9 10 11 12 13 14 15 16 17 18 19 20 21 22 23 24 25 26 27 28 29 30 31 32 33 34 35 36 37 38 39 40 41 42 43 44 45 46 47 48 49 50

000
ASUS43 KDMX 101101
RWRIA

WEATHER ROUNDUP FOR IOWA
NATIONAL WEATHER SERVICE DES MOINES IA
500 AM CST SAT DEC 10 2016

NOTE: "FAIR" INDICATES FEW OR NO CLOUDS BELOW 12,000 FEET WITH NO
SIGNIFICANT WEATHER AND/OR OBSTRUCTIONS TO VISIBILITY.

* - THESE STATIONS ARE NOT NWS STATIONS...THUS NOT UNDER NWS
QUALITY CONTROL.  THEY ALSO DO NOT REPORT WEATHER SUCH
AS PRECIPITATION OR FOG.

IAZ001>003-012>014-020>022-031>034-043>046-101200-
   NORTHWEST IOWA

CITY           SKY/WX    TMP DP  RH WIND       PRES   REMARKS
CARROLL *      CLOUDY    21  14  73 E5        30.45F WCI  15
CHEROKEE *     FLURRIES  17  14  88 CALM      30.45F
DENISON *      CLOUDY    21  14  73 CALM      30.43S
LE MARS *      CLOUDY    18  12  79 E3        30.45F
ORANGE CITY *  PTCLDY    14  12  92 CALM      30.42F
SHELDON *      CLOUDY    10   9  92 E8        30.43S WCI  -1
SIOUX CITY     FLURRIES  20  12  71 E3        30.45F
SPENCER        CLOUDY    10   6  84 NE8       30.46F WCI  -2
STORM LAKE *   FLURRIES  16  12  86 E5        30.43F WCI   9
$$

IAZ055>058-069>071-079>083-090>094-101200-
   SOUTHWEST IOWA

CITY           SKY/WX    TMP DP  RH WIND       PRES   REMARKS
ATLANTIC *     CLOUDY    23  14  68 S3        30.46R
AUDUBON *      CLOUDY    21  16  79 CALM      30.44S
CLARINDA *     CLOUDY    25  16  68 CALM      30.49R
COUNCIL BLFS * CLOUDY    21  16  79 SE3       30.44F
CRESTON *      CLOUDY    23  14  68 S5        30.45F WCI  17
HARLAN  *      CLOUDY    21  16  79 CALM      30.48S
LAMONI         CLOUDY    23  13  65 SE3       30.46F
RED OAK *      CLOUDY    25  16  68 CALM      30.47R
SHENANDOAH *   CLOUDY    25  16  68 CALM      30.47F
$$

IAZ047>049-059>061-072>074-084-101200-
   CENTRAL IOWA

CITY           SKY/WX    TMP DP  RH WIND       PRES   REMARKS
AMES           CLOUDY    20  16  84 CALM      30.48F
ANKENY *       CLOUDY    21  14  73 CALM      30.50F
BOONE *        CLOUDY    19  10  68 CALM      30.46S
CHARITON *     CLOUDY    23  16  74 CALM      30.49R
DES MOINES     CLOUDY    23  13  65 E5        30.48F WCI  17
GRINNELL*      CLOUDY    20  13  74 CALM      30.49S
KNOXVILLE *    CLOUDY    21  14  73 CALM      30.47F
MARSHALLTOWN   CLOUDY    20  15  81 CALM      30.48S
NEWTON *       CLOUDY    19  14  79 CALM      30.48F
PELLA *        CLOUDY    22  15  74 CALM      30.51S
PERRY *        CLOUDY    21  16  81 E3        30.47F
$$

IAZ004>006-015-016-023>025-035-036-101200-
   NORTH CENTRAL IOWA

CITY           SKY/WX    TMP DP  RH WIND       PRES   REMARKS
ALGONA *       CLOUDY    10   9  92 NE8       30.45F WCI  -1
CLARION *      CLOUDY    16  14  93 N6        30.47S WCI   7
ESTHERVILLE    CLOUDY     8   5  87 NE8       30.46F WCI  -4
FORT DODGE *   CLOUDY    18  10  73 CALM      30.47F
MASON CITY     CLOUDY    11   6  81 N9        30.48S WCI  -2
WEBSTER CITY * CLOUDY    18  14  86 CALM      30.45S
IOWA FALLS *   CLOUDY    19  14  82 CALM      30.48F
$$

IAZ007>011-017>019-026>030-037>042-050>054-066-101200-
   NORTHEAST IOWA

CITY           SKY/WX    TMP DP  RH WIND       PRES   REMARKS
CEDAR RAPIDS   CLOUDY    17  15  92 SW3       30.50S
CHARLES CITY * FLURRIES  12   9  85 N7        30.49R WCI   2
CLINTON *      CLOUDY    17  14  88 CALM      30.52F
DECORAH *      FLURRIES  12   7  79 NW3       30.45F
DUBUQUE        PTCLDY    14  12  92 CALM      30.48S
MONTICELLO *   PTCLDY    14  12  92 CALM      30.49F
OELWEIN *      CLOUDY    16  14  93 CALM      30.48S
WATERLOO       CLOUDY    17  14  88 CALM      30.49S
$$

IAZ064-065-067-068-078-101200-
   EAST CENTRAL IOWA

CITY           SKY/WX    TMP DP  RH WIND       PRES   REMARKS
DAVENPORT      CLOUDY    19  13  77 SW5       30.52F WCI  12
IOWA CITY      CLOUDY    21  15  78 CALM      30.54S
MUSCATINE *    CLOUDY    21  16  79 S3        30.54F
QUAD CITIES    CLOUDY    21  14  74 S3        30.53F
$$

IAZ062-063-075>077-085>089-095>099-101200-
   SOUTHEAST IOWA

CITY           SKY/WX    TMP DP  RH WIND       PRES   REMARKS
BURLINGTON     CLOUDY    22  16  78 CALM      30.53S
FAIRFIELD *    CLOUDY    21  14  73 CALM      30.52S
FORT MADISON * CLOUDY    21  16  79 CALM      30.54S
KEOKUK *       CLOUDY    23  18  80 CALM      30.53S
OSKALOOSA *    CLOUDY    21  17  84 CALM      30.51S
CENTERVILLE *  CLOUDY    23  14  68 CALM      30.50S
OTTUMWA        CLOUDY    22  15  75 CALM      30.51S
WASHINGTON *   CLOUDY    21  16  79 SW6       30.54R WCI  14
$$

ABBREVIATIONS USED IN REMARKS
   TC - TEMPERATURES IN CELSIUS
  WCI - WIND CHILL INDEX
   HX - HEAT INDEX
  VSB - VISIBILITY
$$





USA.gov is the U.S. government's official web portal to all federal, state and local government web resources and services.